Location: Clair
(33.8067°N, 117.9845°W)
Time: 17:13:33
(UTC+00:00)

SMAP - Pass Details

Date: 14 February 2026
Orbit: 681 x 683 km, 98.1° (Epoch: 8 March)

Event Time Altitude Azimuth Distance (km) Brightness Sun altitude
Rises 13:44:08 0° 18° (NNE) 3,047 6.6 -11.6°
Reaches altitude 10° 13:46:27 10° 24° (NNE) 2,128 5.8 -11.2°
Maximum altitude 13:50:58 50° 100° (E) 867 4.1 -10.2°
Drops below altitude 10° 13:55:27 10° 176° (S) 2,114 5.8 -9.3°
Sets 13:57:44 0° 181° (S) 3,025 6.5 -8.8°
